Valparaiso, FL

2:18 PM CST on January 19, 2018 (GMT -0600)
Eglin Air Force Base

Weather History for KVPS - January, 2013

Change the Weather History Date:

Sunday, January 27, 2013

  Actual Average Record
Temperature  
Mean Temperature 60 °F -  
Max Temperature 69 °F 59 °F 79 °F (1965)
Min Temperature 51 °F 36 °F 22 °F (1985)
Degree Days  
Heating Degree Days 5    
Growing Degree Days 10 (Base 50)    
Moisture  
Dew Point 54 °F    
Average Humidity 80    
Maximum Humidity 96    
Minimum Humidity 59    
Precipitation  
Precipitation 0.00 in - - ()
Sea Level Pressure  
Sea Level Pressure 30.30 in    
Wind  
Wind Speed 4 mph (East)    
Max Wind Speed 9 mph    
Max Gust Speed -    
Visibility 9 miles    
Events      
Averages and records for this station are not official NWS values.
T = Trace of Precipitation, MM = Missing Value Source: NWS Daily Summary

Daily Weather History Graph

Daily Weather History Graph

Search for Another Location

Airport or City:

Trip Planner

Search our weather history database for the weather conditions in past years. The results will help you decide how hot, cold, wet, or windy it might be!

Date:

Astronomy

Jan. 27, 2013 Rise Set
Actual Time 6:39 AM CST 5:18 PM CST
Civil Twilight 6:14 AM CST 5:43 PM CST
Nautical Twilight 5:45 AM CST 6:12 PM CST
Astronomical Twilight 5:16 AM CST 6:41 PM CST
Moon 6:04 PM CST (1/27) 6:38 AM CST (1/27)
Length of Visible Light 11h 29m
Length of Day
10h 38m
Full, 100% of the Moon is Illuminated
Jan 27
Full
Feb 3
Last Quarter
Feb 10
New
Feb 17
First Quarter
Feb 25
Full

Hourly Weather History & Observations

Time (CST) Temp. Dew Point Humidity Pressure Visibility Wind Dir Wind Speed Gust Speed Precip Events Conditions
12:55 AM 54.7 °F 53.4 °F 96% 30.28 in 10.0 mi NE 3.5 mph - N/A   Partly Cloudy
1:55 AM 53.8 °F 52.7 °F 96% 30.29 in 10.0 mi NNE 4.6 mph - N/A   Partly Cloudy
2:55 AM 53.2 °F 52.2 °F 96% 30.29 in 10.0 mi NNE 5.8 mph - N/A   Partly Cloudy
3:55 AM 51.6 °F 50.4 °F 95% 30.29 in 10.0 mi NE 4.6 mph - N/A   Clear
4:55 AM 54.5 °F 52.2 °F 92% 30.28 in 10.0 mi ENE 3.5 mph - N/A   Clear
5:55 AM 53.1 °F 51.1 °F 93% 30.29 in 10.0 mi ENE 2.3 mph - N/A   Clear
6:55 AM 53.1 °F 48.0 °F 83% 30.30 in 10.0 mi East 4.6 mph - N/A   Partly Cloudy
7:55 AM 54.5 °F 45.7 °F 72% 30.31 in 10.0 mi ENE 4.6 mph - N/A   Partly Cloudy
8:55 AM 57.2 °F 45.0 °F 64% 30.33 in 10.0 mi ENE 4.6 mph - N/A   Partly Cloudy
9:55 AM 61.5 °F 48.2 °F 62% 30.34 in 10.0 mi Variable 3.5 mph - N/A   Partly Cloudy
10:55 AM 64.8 °F 51.6 °F 62% 30.34 in 7.0 mi SE 6.9 mph - N/A   Partly Cloudy
11:55 AM 68.0 °F 53.2 °F 59% 30.31 in 7.0 mi SSE 6.9 mph - N/A   Mostly Cloudy
12:55 PM 68.9 °F 54.5 °F 60% 30.28 in 7.0 mi SSE 9.2 mph - N/A   Mostly Cloudy
1:55 PM 69.3 °F 55.6 °F 62% 30.27 in 7.0 mi SSE 5.8 mph - N/A   Mostly Cloudy
2:57 PM 68.4 °F 55.9 °F 64% 30.27 in 7.0 mi SSW 5.8 mph - N/A   Mostly Cloudy
3:55 PM 68.2 °F 56.7 °F 67% 30.28 in 10.0 mi South 8.1 mph - N/A   Mostly Cloudy
4:55 PM 65.3 °F 57.7 °F 76% 30.28 in 10.0 mi SSW 4.6 mph - N/A   Mostly Cloudy
5:55 PM 63.5 °F 56.7 °F 78% 30.29 in 10.0 mi Calm Calm - N/A   Mostly Cloudy
6:55 PM 62.2 °F 57.7 °F 85% 30.30 in 10.0 mi Calm Calm - N/A   Mostly Cloudy
7:55 PM 62.1 °F 57.6 °F 85% 30.31 in 7.0 mi Calm Calm - N/A   Mostly Cloudy
8:55 PM 63.5 °F 58.3 °F 83% 30.29 in 10.0 mi East 2.3 mph - N/A   Mostly Cloudy
9:55 PM 59.5 °F 57.6 °F 93% 30.29 in 6.0 mi Calm Calm - N/A   Partly Cloudy
10:55 PM 60.3 °F 58.8 °F 95% 30.29 in 5.0 mi ESE 2.3 mph - N/A   Scattered Clouds
11:55 PM 60.3 °F 58.8 °F 95% 30.29 in 6.0 mi NNE 2.3 mph - N/A   Mostly Cloudy